Location: Sternwarte_Laufen
(47.9344°N, 12.9346°E)
Time: 06:10:30
(UTC+02:00)

BlueWalker 3 - Pass Details

Date: 19 May 2026
Orbit: 447 x 456 km, 53.2° (Epoch: 10 June)

Event Time Altitude Azimuth Distance (km) Brightness Sun altitude
Exits shadow 00:50:43 65° 3° (N) 496 2.0 -22.3°
Drops below altitude 10° 00:54:02 10° 60° (ENE) 1,576 4.8 -22.3°
Sets 00:56:11 0° 63° (ENE) 2,450 5.8 -22.3°
